軌道要素
Epoch 2018 Jan. 2.0 TT = JDT 2458120.5
T 2017 Dec. 31.02910 TT Rudenko
q 6.8017386 (2000.0) P Q
z -0.0004896 Peri. 27.75231 -0.25136011 +0.67029003
+/-0.0000006 Node 122.31452 +0.66183235 -0.40736003
e 1.0033298 Incl. 124.29091 +0.70625493 +0.62029757
From 222 observations 2015 Dec. 6-2020 Feb. 14, mean residual 0".5.
|